Regional Weather Roundup
Issued by NWS

Home | Current Version | Previous Version | Graphics & Text | Print | Product List | Glossary On
Versions: 1 2 3 4 5 6 7 8 9 10 11 12 13 14 15 16 17 18 19 20 21 22 23 24 25 26 27 28 29 30 31 32 33 34 35 36 37 38 39 40 41 42 43 44 45 46 47 48 49 50
000
ASUS43 KLMK 210510
RWRKY
KENTUCKY REGIONAL WEATHER ROUNDUP
NATIONAL WEATHER SERVICE LOUISVILLE KY
100 AM EDT SAT APR 21 2018

NOTE "FAIR" INDICATES FEW OR NO CLOUDS BELOW 12,000 FEET
WITH NO SIGNIFICANT WEATHER AND/OR OBSTRUCTIONS TO VISIBILITY.

KYZ001>023-026-027-061>063-070>075-210600-
WESTERN AND SOUTH CENTRAL KENTUCKY

CITY           SKY/WX    TMP DP  RH WIND       PRES   REMARKS
PADUCAH        FAIR      46  35  65 CALM      30.32R
HENDERSON      FAIR      48  34  58 CALM      30.36R
OWENSBORO      FAIR      52  26  36 NE6       30.36S
HOPKINSVILLE   FAIR      52  29  41 E8        30.32S
BOWLING GREEN  FAIR      47  31  53 NE6       30.35R
GLASGOW        FAIR      47  30  51 NE7       30.35R
$$

KYZ024-025-028>034-038-045-046-053-210600-
NORTH CENTRAL KENTUCKY

CITY           SKY/WX    TMP DP  RH WIND       PRES   REMARKS
LOUISVILLE/SDF FAIR      51  26  37 E6        30.38R
LOUISVILLE/LOU FAIR      49  27  42 E5        30.39R
FORT KNOX      FAIR      49  25  39 NE7       30.37S
$$

KYZ035>037-039>044-047>052-055>060-089>105-210600-
NORTHEAST KENTUCKY

CITY           SKY/WX    TMP DP  RH WIND       PRES   REMARKS
LEXINGTON      FAIR      47  27  45 NE12      30.39S
COVINGTON      FAIR      48  26  42 E8        30.40S
FRANKFORT      FAIR      48  26  42 NE6       30.38R
$$

KYZ054-064>069-076>088-106>120-210600-
SOUTHEAST KENTUCKY

CITY           SKY/WX    TMP DP  RH WIND       PRES   REMARKS
JACKSON        FAIR      49  21  33 NE6       30.38S
LONDON         FAIR      45  27  49 N7        30.36S
SOMERSET       FAIR      46  27  46 E5        30.37S
MIDDLESBORO    FAIR      40  33  75 CALM      30.36S
MONTICELLO     FAIR      45  29  53 CALM      30.37S
$$





USA.gov is the U.S. government's official web portal to all federal, state and local government web resources and services.